SPEXM KBFI-ENZV

Flight info

Callsign SPEXM
Flight time N/A
Altitude 39000
Route ALPSE DCT IWACK J503 FOLDY DCT DUDNI DCT WAINN DCT MEETO Q959 YVC J540 YYL J539 YYQ DCT RONPU DCT YFB DCT NALDI/M080F390 DCT AVPUT DCT 66N050W 66N040W 66N030W 65N020W 62N010W DCT RIXUN/N0467F390 DCT PEPIN DCT KUNEM
Aircraft B38M/M-SDE1FGHILORVWXY/HB1

Departure

Time 2026-05-08 04:52
Airport King County International Airport - Boeing Field (KBFI)

Arrival

Time N/A
Airport Stavanger Airport, Sola (ENZV)
Time Latitude Longitude Altitude Speed Heading
2026-05-08 04:29 47.53633 -122.31240 30 ft 0 kts 272°
2026-05-08 04:43 47.53632 -122.31222 30 ft 4 kts 269°
2026-05-08 04:43 47.53632 -122.31184 30 ft 2 kts 270°
2026-05-08 04:44 47.53628 -122.31153 30 ft 4 kts 311°
2026-05-08 04:44 47.53607 -122.31129 30 ft 3 kts 325°
2026-05-08 04:44 47.53601 -122.31122 30 ft 0 kts 325°
2026-05-08 04:48 47.53605 -122.31126 30 ft 3 kts 325°
2026-05-08 04:48 47.53647 -122.31169 30 ft 13 kts 325°
2026-05-08 04:48 47.53745 -122.31270 30 ft 20 kts 326°
2026-05-08 04:48 47.53870 -122.31380 30 ft 22 kts 335°
2026-05-08 04:49 47.53961 -122.31319 30 ft 16 kts 65°
2026-05-08 04:49 47.53986 -122.31236 29 ft 0 kts 63°
2026-05-08 04:50 47.53987 -122.31232 29 ft 2 kts 63°
2026-05-08 04:50 47.54000 -122.31195 29 ft 6 kts 62°
2026-05-08 04:51 47.54022 -122.31121 29 ft 8 kts 92°
2026-05-08 04:51 47.53966 -122.31058 29 ft 25 kts 153°
2026-05-08 04:51 47.53566 -122.30722 27 ft 105 kts 150°
2026-05-08 04:51 47.52740 -122.30025 51 ft 162 kts 150°
2026-05-08 04:52 47.51727 -122.29173 651 ft 173 kts 150°
2026-05-08 04:52 47.50631 -122.28257 1286 ft 189 kts 151°
2026-05-08 04:52 47.49428 -122.27230 1832 ft 210 kts 152°
2026-05-08 04:52 47.48123 -122.26121 2783 ft 225 kts 151°
2026-05-08 04:53 47.46706 -122.24925 3661 ft 244 kts 151°
2026-05-08 04:53 47.45211 -122.23591 4631 ft 259 kts 142°
2026-05-08 04:53 47.44184 -122.21390 5667 ft 268 kts 106°
2026-05-08 04:53 47.44142 -122.18620 6664 ft 277 kts 72°
2026-05-08 04:54 47.45127 -122.16200 7628 ft 279 kts 43°
2026-05-08 04:54 47.46641 -122.14375 8600 ft 284 kts 29°
2026-05-08 04:54 47.48355 -122.12875 9654 ft 288 kts 26°
2026-05-08 04:54 47.50094 -122.11377 10523 ft 299 kts 26°
2026-05-08 04:55 47.51946 -122.09773 11078 ft 319 kts 26°
2026-05-08 04:55 47.53923 -122.08058 11561 ft 340 kts 26°
2026-05-08 04:55 47.56011 -122.06244 12094 ft 356 kts 26°
2026-05-08 04:55 47.58184 -122.04357 12789 ft 366 kts 26°
2026-05-08 04:56 47.60389 -122.02445 13703 ft 369 kts 25°
2026-05-08 04:56 47.62622 -122.00505 14448 ft 375 kts 25°
2026-05-08 04:56 47.64881 -121.98541 15240 ft 378 kts 26°
2026-05-08 04:56 47.67157 -121.96562 15992 ft 381 kts 26°
2026-05-08 04:57 47.69457 -121.94560 16740 ft 385 kts 26°
2026-05-08 04:57 47.71779 -121.92538 17474 ft 388 kts 26°
2026-05-08 04:57 47.74118 -121.90497 18187 ft 392 kts 26°
2026-05-08 04:57 47.76480 -121.88437 18806 ft 396 kts 26°
2026-05-08 04:58 47.78868 -121.86350 19374 ft 400 kts 26°
2026-05-08 04:58 47.81273 -121.84246 19985 ft 402 kts 26°
2026-05-08 04:58 47.83699 -121.82121 20587 ft 406 kts 26°
2026-05-08 04:58 47.86143 -121.79978 21162 ft 410 kts 26°
2026-05-08 04:59 47.88611 -121.77811 21732 ft 413 kts 25°
2026-05-08 04:59 47.91100 -121.75625 22292 ft 417 kts 25°
2026-05-08 04:59 47.93608 -121.73418 22841 ft 420 kts 25°
2026-05-08 04:59 47.96140 -121.71188 23364 ft 424 kts 25°
2026-05-08 05:00 47.98656 -121.68969 23888 ft 428 kts 25°
2026-05-08 05:00 48.01260 -121.66670 24373 ft 430 kts 25°
2026-05-08 05:00 48.03805 -121.64421 24868 ft 432 kts 25°
2026-05-08 05:00 48.06398 -121.62127 25359 ft 434 kts 25°
2026-05-08 05:01 48.09006 -121.59816 25816 ft 437 kts 25°
2026-05-08 05:01 48.11626 -121.57493 26274 ft 439 kts 24°
2026-05-08 05:01 48.14260 -121.55154 26758 ft 441 kts 24°
2026-05-08 05:01 48.16897 -121.52811 27323 ft 440 kts 24°
2026-05-08 05:02 48.19537 -121.50460 27765 ft 443 kts 24°
2026-05-08 05:02 48.21495 -121.48716 28054 ft 445 kts 24°
2026-05-08 05:02 48.24163 -121.46336 28503 ft 447 kts 24°
2026-05-08 05:02 48.26843 -121.43943 28930 ft 450 kts 24°
2026-05-08 05:03 48.29540 -121.41531 29345 ft 452 kts 24°
2026-05-08 05:03 48.32249 -121.39105 29740 ft 455 kts 24°
2026-05-08 05:03 48.34974 -121.36663 30138 ft 458 kts 24°
2026-05-08 05:03 48.37719 -121.34199 30454 ft 461 kts 24°
2026-05-08 05:04 48.40475 -121.31721 30920 ft 460 kts 23°
2026-05-08 05:04 48.43205 -121.29265 31562 ft 454 kts 23°
2026-05-08 05:04 48.45913 -121.26828 32095 ft 452 kts 23°
2026-05-08 05:04 48.48601 -121.24403 32595 ft 449 kts 23°
2026-05-08 05:05 48.51242 -121.22018 33125 ft 447 kts 22°
2026-05-08 05:05 48.53904 -121.19611 33576 ft 446 kts 22°
2026-05-08 05:05 48.56561 -121.17205 34036 ft 444 kts 22°
2026-05-08 05:05 48.59204 -121.14809 34467 ft 442 kts 22°
2026-05-08 05:06 48.61841 -121.12415 34860 ft 441 kts 22°
2026-05-08 05:06 48.64470 -121.10025 35279 ft 440 kts 22°
2026-05-08 05:06 48.67091 -121.07641 35645 ft 439 kts 22°
2026-05-08 05:06 48.69700 -121.05264 35997 ft 438 kts 22°
2026-05-08 05:07 48.72304 -121.02889 36362 ft 437 kts 21°
2026-05-08 05:07 48.74911 -121.00508 36683 ft 436 kts 21°
2026-05-08 05:07 48.77503 -120.98138 37054 ft 435 kts 21°
2026-05-08 05:07 48.80093 -120.95766 37388 ft 434 kts 21°
2026-05-08 05:08 48.82676 -120.93397 37676 ft 433 kts 21°
2026-05-08 05:08 48.85252 -120.91033 37974 ft 432 kts 21°
2026-05-08 05:08 48.87826 -120.88668 38269 ft 431 kts 21°
2026-05-08 05:08 48.90393 -120.86307 38522 ft 432 kts 21°
2026-05-08 05:09 48.92954 -120.83905 38704 ft 434 kts 24°
2026-05-08 05:09 48.95469 -120.81359 38907 ft 434 kts 24°
2026-05-08 05:09 48.97989 -120.78826 39014 ft 435 kts 24°
2026-05-08 05:09 49.00495 -120.76229 38990 ft 437 kts 25°
2026-05-08 05:10 49.07173 -120.66715 39007 ft 458 kts 44°
2026-05-08 05:11 49.10969 -120.58857 38968 ft 460 kts 45°
2026-05-08 05:11 49.14719 -120.50923 38963 ft 461 kts 45°
2026-05-08 05:12 49.18456 -120.42961 38970 ft 461 kts 45°
2026-05-08 05:12 49.22185 -120.34990 38962 ft 461 kts 45°
2026-05-08 05:13 49.25913 -120.27001 38956 ft 461 kts 45°
2026-05-08 05:13 49.29637 -120.18993 38951 ft 461 kts 45°
2026-05-08 05:14 49.33356 -120.10974 38934 ft 461 kts 45°
2026-05-08 05:14 49.37066 -120.02949 38944 ft 461 kts 45°
2026-05-08 05:15 49.40739 -119.94981 38946 ft 461 kts 46°
2026-05-08 05:15 49.44439 -119.86928 38922 ft 461 kts 46°
2026-05-08 05:16 49.48131 -119.78871 38938 ft 461 kts 46°
2026-05-08 05:16 49.51823 -119.70788 38929 ft 461 kts 46°
2026-05-08 05:17 49.55505 -119.62703 38927 ft 461 kts 46°
2026-05-08 05:17 49.59183 -119.54602 38938 ft 461 kts 46°
2026-05-08 05:18 49.62236 -119.47859 38930 ft 461 kts 46°
2026-05-08 05:18 49.65905 -119.39734 38917 ft 461 kts 46°
2026-05-08 05:19 49.69562 -119.31608 38944 ft 459 kts 46°
2026-05-08 05:19 49.73207 -119.23487 38980 ft 462 kts 46°
2026-05-08 05:20 49.76870 -119.15299 38945 ft 461 kts 46°
2026-05-08 05:20 49.80513 -119.07129 38961 ft 462 kts 46°
2026-05-08 05:21 49.84157 -118.98934 38955 ft 462 kts 46°
2026-05-08 05:21 49.87779 -118.90764 38980 ft 464 kts 46°
2026-05-08 05:22 49.91419 -118.82524 38966 ft 462 kts 47°
2026-05-08 05:22 49.95046 -118.74291 38988 ft 462 kts 47°
2026-05-08 05:23 49.98671 -118.66034 38970 ft 462 kts 47°
2026-05-08 05:23 50.02290 -118.57770 38962 ft 461 kts 47°
2026-05-08 05:24 50.05896 -118.49512 38905 ft 461 kts 49°
2026-05-08 05:24 50.09492 -118.41241 38980 ft 462 kts 49°
2026-05-08 05:25 50.13079 -118.32969 38972 ft 460 kts 49°
2026-05-08 05:25 50.16633 -118.24747 38967 ft 460 kts 49°
2026-05-08 05:26 50.20219 -118.16429 38964 ft 459 kts 49°
2026-05-08 05:26 50.23749 -118.08209 38942 ft 458 kts 49°
2026-05-08 05:27 50.27296 -117.99928 38973 ft 460 kts 49°
2026-05-08 05:27 50.30840 -117.91626 38963 ft 459 kts 49°
2026-05-08 05:28 50.34380 -117.83307 38970 ft 459 kts 49°
2026-05-08 05:28 50.37915 -117.74976 38952 ft 458 kts 49°
2026-05-08 05:29 50.41433 -117.66654 38957 ft 457 kts 49°
2026-05-08 05:29 50.44943 -117.58331 38999 ft 459 kts 49°
2026-05-08 05:30 50.48453 -117.49975 38971 ft 458 kts 49°
2026-05-08 05:30 50.51958 -117.41607 38990 ft 458 kts 49°
2026-05-08 05:31 50.55431 -117.33288 38957 ft 457 kts 49°
2026-05-08 05:31 50.58924 -117.24896 38924 ft 459 kts 49°
2026-05-08 05:32 50.62400 -117.16517 38990 ft 457 kts 49°
2026-05-08 05:32 50.65873 -117.08122 38931 ft 457 kts 48°
2026-05-08 05:33 50.69336 -116.99719 39003 ft 457 kts 49°
2026-05-08 05:33 50.72785 -116.91326 38956 ft 453 kts 48°
2026-05-08 05:34 50.76190 -116.83010 39014 ft 454 kts 49°
2026-05-08 05:34 50.79626 -116.74593 38973 ft 455 kts 48°
2026-05-08 05:35 50.83046 -116.66192 39051 ft 455 kts 49°
2026-05-08 05:35 50.86465 -116.57758 38967 ft 453 kts 49°
2026-05-08 05:36 50.89863 -116.49356 39003 ft 454 kts 49°
2026-05-08 05:36 50.93259 -116.40928 38978 ft 453 kts 49°
2026-05-08 05:37 50.96646 -116.32495 39008 ft 453 kts 49°
2026-05-08 05:37 51.00033 -116.24039 38990 ft 453 kts 49°
2026-05-08 05:38 51.03407 -116.15586 39015 ft 453 kts 49°
2026-05-08 05:38 51.06774 -116.07119 38987 ft 452 kts 49°
2026-05-08 05:39 51.10129 -115.98654 39019 ft 453 kts 49°
2026-05-08 05:39 51.13477 -115.90184 38996 ft 451 kts 49°
2026-05-08 05:40 51.16820 -115.81697 39022 ft 452 kts 49°
2026-05-08 05:40 51.20156 -115.73200 39020 ft 452 kts 49°
2026-05-08 05:41 51.23473 -115.64724 39002 ft 452 kts 48°
2026-05-08 05:41 51.26788 -115.56223 39023 ft 452 kts 49°
2026-05-08 05:42 51.30101 -115.47701 39004 ft 451 kts 48°
2026-05-08 05:42 51.33389 -115.39212 38990 ft 448 kts 49°
2026-05-08 05:43 51.36686 -115.30674 38994 ft 450 kts 49°
2026-05-08 05:43 51.39968 -115.22151 38989 ft 450 kts 49°
2026-05-08 05:44 51.43248 -115.13600 38998 ft 450 kts 49°
2026-05-08 05:44 51.46513 -115.05060 38989 ft 448 kts 49°
2026-05-08 05:45 51.49746 -114.96576 38987 ft 448 kts 49°
2026-05-08 05:45 51.52989 -114.88036 38984 ft 448 kts 49°
2026-05-08 05:46 51.56226 -114.79485 38991 ft 447 kts 49°
2026-05-08 05:46 51.59448 -114.70946 38985 ft 446 kts 49°
2026-05-08 05:47 51.62660 -114.62405 38983 ft 446 kts 49°
2026-05-08 05:47 51.65864 -114.53855 38977 ft 446 kts 49°
2026-05-08 05:48 51.69061 -114.45295 38981 ft 446 kts 49°
2026-05-08 05:48 51.72249 -114.36730 38970 ft 445 kts 49°
2026-05-08 05:49 51.75432 -114.28151 38973 ft 445 kts 49°
2026-05-08 05:49 51.78605 -114.19569 38971 ft 445 kts 49°
2026-05-08 05:50 51.81775 -114.10967 38969 ft 446 kts 49°
2026-05-08 05:50 51.84938 -114.02353 38967 ft 446 kts 49°
2026-05-08 05:51 51.88099 -113.93718 38964 ft 446 kts 49°
2026-05-08 05:51 51.91236 -113.85118 38961 ft 446 kts 49°
2026-05-08 05:52 51.94388 -113.76448 38951 ft 446 kts 49°
2026-05-08 05:52 51.97533 -113.67775 38950 ft 446 kts 49°
2026-05-08 05:53 52.00674 -113.59085 38951 ft 446 kts 49°
2026-05-08 05:53 52.03809 -113.50384 38949 ft 446 kts 50°
2026-05-08 05:54 52.06943 -113.41654 38944 ft 446 kts 50°
2026-05-08 05:54 52.10066 -113.32930 38937 ft 446 kts 50°
2026-05-08 05:55 52.13180 -113.24199 38934 ft 446 kts 50°
2026-05-08 05:55 52.16289 -113.15453 38924 ft 446 kts 50°
2026-05-08 05:56 52.19369 -113.06759 38920 ft 446 kts 50°
2026-05-08 05:56 52.22460 -112.98008 38915 ft 446 kts 50°
2026-05-08 05:57 52.25722 -112.89472 38918 ft 442 kts 47°
2026-05-08 05:57 52.29039 -112.81003 38912 ft 442 kts 47°
2026-05-08 05:58 52.32347 -112.72523 38910 ft 442 kts 47°
2026-05-08 05:58 52.35648 -112.64032 38910 ft 442 kts 48°
2026-05-08 05:59 52.38925 -112.55574 38907 ft 443 kts 48°
2026-05-08 05:59 52.42215 -112.47053 38906 ft 443 kts 48°
2026-05-08 06:00 52.45503 -112.38512 38907 ft 443 kts 48°
2026-05-08 06:00 52.48786 -112.29951 38909 ft 444 kts 48°
2026-05-08 06:01 52.52070 -112.21362 38913 ft 444 kts 48°
2026-05-08 06:01 52.55325 -112.12817 38914 ft 444 kts 49°
2026-05-08 06:02 52.58601 -112.04189 38921 ft 445 kts 49°
2026-05-08 06:02 52.61873 -111.95543 38924 ft 445 kts 49°
2026-05-08 06:03 52.65140 -111.86879 38926 ft 446 kts 49°
2026-05-08 06:03 52.68406 -111.78188 38927 ft 446 kts 49°
2026-05-08 06:04 52.71666 -111.69484 38927 ft 446 kts 49°
2026-05-08 06:04 52.74924 -111.60756 38927 ft 447 kts 49°
2026-05-08 06:05 52.78155 -111.52069 38922 ft 447 kts 50°
2026-05-08 06:05 52.81405 -111.43301 38928 ft 448 kts 50°
2026-05-08 06:06 52.84653 -111.34507 38929 ft 448 kts 50°
2026-05-08 06:06 52.87895 -111.25699 38922 ft 448 kts 50°
2026-05-08 06:07 52.90590 -111.18356 38929 ft 449 kts 50°
2026-05-08 06:07 52.93826 -111.09507 38926 ft 449 kts 50°
2026-05-08 06:08 52.97062 -111.00631 38929 ft 450 kts 50°
2026-05-08 06:08 53.00300 -110.91725 38927 ft 450 kts 50°
2026-05-08 06:09 53.03481 -110.82732 38927 ft 453 kts 53°
2026-05-08 06:09 53.06145 -110.73134 38923 ft 463 kts 63°
2026-05-08 06:09 53.06887 -110.67851 38892 ft 477 kts 78°
2026-05-08 06:10 53.07073 -110.62313 38922 ft 479 kts 77°
2026-05-08 06:10 53.07821 -110.57049 38901 ft 460 kts 60°
2026-05-08 06:10 53.08893 -110.52013 38896 ft 468 kts 67°
2026-05-08 06:11 53.10676 -110.41577 38914 ft 469 kts 66°
2026-05-08 06:11 53.12467 -110.31222 38889 ft 468 kts 66°
2026-05-08 06:12 53.14261 -110.20796 38880 ft 469 kts 66°
2026-05-08 06:12 53.16047 -110.10356 38874 ft 468 kts 67°
2026-05-08 06:13 53.17820 -109.99925 38869 ft 467 kts 67°
2026-05-08 06:13 53.19582 -109.89499 38875 ft 467 kts 67°
2026-05-08 06:14 53.21333 -109.79081 38888 ft 466 kts 67°
2026-05-08 06:14 53.23073 -109.68665 38892 ft 465 kts 67°
2026-05-08 06:15 53.24800 -109.58260 38898 ft 465 kts 68°
2026-05-08 06:15 53.26519 -109.47846 38903 ft 465 kts 68°
2026-05-08 06:16 53.28227 -109.37427 38899 ft 464 kts 68°
2026-05-08 06:16 53.29924 -109.27018 38897 ft 464 kts 68°
2026-05-08 06:17 53.32438 -109.11475 38895 ft 464 kts 68°
2026-05-08 06:17 53.34113 -109.01042 38896 ft 464 kts 69°
2026-05-08 06:18 53.35778 -108.90606 38899 ft 464 kts 69°
2026-05-08 06:18 53.37432 -108.80167 38896 ft 464 kts 69°
2026-05-08 06:19 53.39080 -108.69707 38897 ft 464 kts 69°
2026-05-08 06:19 53.40719 -108.59230 38904 ft 465 kts 69°
2026-05-08 06:20 53.42349 -108.48750 38902 ft 465 kts 69°
2026-05-08 06:20 53.43971 -108.38257 38899 ft 465 kts 70°
2026-05-08 06:21 53.45584 -108.27754 38897 ft 465 kts 70°
2026-05-08 06:21 53.47187 -108.17249 38895 ft 465 kts 70°
2026-05-08 06:22 53.48782 -108.06723 38897 ft 465 kts 70°
2026-05-08 06:22 53.50367 -107.96191 38902 ft 465 kts 70°
2026-05-08 06:23 53.51943 -107.85657 38903 ft 465 kts 70°
2026-05-08 06:23 53.53511 -107.75106 38901 ft 465 kts 70°
2026-05-08 06:24 53.55070 -107.64561 38897 ft 465 kts 71°
2026-05-08 06:24 53.56622 -107.54000 38890 ft 465 kts 71°
2026-05-08 06:25 53.58158 -107.43514 38898 ft 464 kts 69°
2026-05-08 06:25 53.59304 -107.38514 38885 ft 452 kts 55°
2026-05-08 06:25 53.61091 -107.34269 38892 ft 440 kts 40°
2026-05-08 06:26 53.65706 -107.27631 38893 ft 436 kts 33°
2026-05-08 06:26 53.70495 -107.21358 38897 ft 436 kts 32°
2026-05-08 06:27 53.75319 -107.15151 38892 ft 436 kts 32°
2026-05-08 06:27 53.80145 -107.08947 38899 ft 436 kts 32°
2026-05-08 06:28 53.84978 -107.02721 38897 ft 436 kts 32°
2026-05-08 06:28 53.89804 -106.96484 38896 ft 436 kts 32°
2026-05-08 06:29 53.94599 -106.90269 38894 ft 436 kts 32°
2026-05-08 06:29 53.99423 -106.83998 38894 ft 437 kts 32°
2026-05-08 06:30 54.04247 -106.77707 38891 ft 437 kts 32°
2026-05-08 06:30 54.09070 -106.71402 38896 ft 437 kts 32°
2026-05-08 06:31 54.13894 -106.65071 38898 ft 437 kts 32°
2026-05-08 06:31 54.18722 -106.58718 38897 ft 438 kts 32°
2026-05-08 06:32 54.23539 -106.52359 38900 ft 438 kts 32°
2026-05-08 06:32 54.28371 -106.45961 38899 ft 438 kts 32°
2026-05-08 06:33 54.33188 -106.39564 38899 ft 438 kts 32°
2026-05-08 06:33 54.37975 -106.33188 38901 ft 439 kts 32°
2026-05-08 06:34 54.42789 -106.26756 38908 ft 439 kts 32°
2026-05-08 06:34 54.47604 -106.20303 38906 ft 439 kts 33°
2026-05-08 06:35 54.52415 -106.13835 38908 ft 439 kts 33°
2026-05-08 06:35 54.57230 -106.07343 38907 ft 439 kts 33°
2026-05-08 06:36 54.62041 -106.00835 38908 ft 440 kts 33°
2026-05-08 06:36 54.66853 -105.94306 38910 ft 440 kts 33°
2026-05-08 06:37 54.71664 -105.87758 38908 ft 440 kts 33°
2026-05-08 06:37 54.76476 -105.81188 38907 ft 441 kts 33°
2026-05-08 06:38 54.81289 -105.74596 38898 ft 441 kts 33°
2026-05-08 06:38 54.86105 -105.67980 38902 ft 441 kts 33°
2026-05-08 06:39 54.90921 -105.61343 38897 ft 442 kts 34°
2026-05-08 06:39 54.95707 -105.54725 38893 ft 442 kts 34°
2026-05-08 06:40 55.00519 -105.48052 38885 ft 442 kts 34°
2026-05-08 06:40 55.05331 -105.41359 38877 ft 443 kts 34°
2026-05-08 06:41 55.10146 -105.34643 38872 ft 443 kts 34°
2026-05-08 06:41 55.14951 -105.27897 38872 ft 444 kts 37°
2026-05-08 06:42 55.17035 -105.23871 38870 ft 450 kts 49°
2026-05-08 06:42 55.18942 -105.19522 38869 ft 451 kts 47°
2026-05-08 06:42 55.22803 -105.10870 38879 ft 451 kts 47°
2026-05-08 06:43 55.26637 -105.02152 38887 ft 451 kts 48°
2026-05-08 06:43 55.30460 -104.93417 38896 ft 451 kts 48°
2026-05-08 06:44 55.34276 -104.84667 38902 ft 451 kts 48°
2026-05-08 06:44 55.38087 -104.75898 38907 ft 451 kts 48°
2026-05-08 06:45 55.41893 -104.67109 38911 ft 451 kts 48°
2026-05-08 06:45 55.45690 -104.58309 38910 ft 451 kts 48°
2026-05-08 06:46 55.49482 -104.49489 38916 ft 451 kts 48°
2026-05-08 06:46 55.53244 -104.40706 38915 ft 451 kts 49°
2026-05-08 06:47 55.57025 -104.31849 38909 ft 451 kts 49°
2026-05-08 06:47 55.60799 -104.22974 38905 ft 452 kts 49°
2026-05-08 06:48 55.64570 -104.14077 38906 ft 452 kts 49°
2026-05-08 06:48 55.68336 -104.05156 38909 ft 452 kts 49°
2026-05-08 06:49 55.72096 -103.96219 38908 ft 452 kts 49°
2026-05-08 06:49 55.75855 -103.87251 38907 ft 452 kts 49°
2026-05-08 06:50 55.79601 -103.78280 38915 ft 453 kts 49°
2026-05-08 06:50 55.83321 -103.69341 38907 ft 452 kts 49°
2026-05-08 06:51 55.87056 -103.60332 38910 ft 453 kts 49°
2026-05-08 06:51 55.90788 -103.51296 38910 ft 452 kts 50°
2026-05-08 06:52 55.94513 -103.42245 38908 ft 452 kts 50°
2026-05-08 06:52 55.98231 -103.33176 38909 ft 452 kts 50°
2026-05-08 06:53 56.01945 -103.24085 38912 ft 452 kts 50°
2026-05-08 06:53 56.05650 -103.14983 38909 ft 452 kts 50°
2026-05-08 06:54 56.08722 -103.07417 38908 ft 452 kts 50°
2026-05-08 06:54 56.12415 -102.98290 38909 ft 452 kts 50°
2026-05-08 06:55 56.16093 -102.89136 38907 ft 452 kts 50°
2026-05-08 06:55 56.19769 -102.79970 38903 ft 452 kts 50°
2026-05-08 06:56 56.23434 -102.70797 38908 ft 452 kts 50°
2026-05-08 06:56 56.27094 -102.61605 38903 ft 452 kts 50°
2026-05-08 06:57 56.30747 -102.52395 38898 ft 452 kts 51°
2026-05-08 06:57 56.34389 -102.43179 38901 ft 451 kts 51°
2026-05-08 06:58 56.38022 -102.33946 38896 ft 451 kts 51°
2026-05-08 06:58 56.41649 -102.24697 38893 ft 451 kts 51°
2026-05-08 06:59 56.45266 -102.15437 38891 ft 451 kts 51°
2026-05-08 06:59 56.48880 -102.06151 38888 ft 451 kts 51°
2026-05-08 07:00 56.52481 -101.96861 38891 ft 451 kts 51°
2026-05-08 07:00 56.56051 -101.87616 38885 ft 451 kts 51°
2026-05-08 07:01 56.59640 -101.78287 38886 ft 451 kts 51°
2026-05-08 07:01 56.63245 -101.68879 38884 ft 451 kts 51°
2026-05-08 07:02 56.66797 -101.59577 38877 ft 451 kts 52°
2026-05-08 07:02 56.70364 -101.50194 38856 ft 451 kts 52°
2026-05-08 07:03 56.73926 -101.40790 38850 ft 451 kts 52°
2026-05-08 07:03 56.77480 -101.31371 38826 ft 451 kts 52°
2026-05-08 07:04 56.81030 -101.21929 38806 ft 451 kts 52°
2026-05-08 07:04 56.84572 -101.12477 38808 ft 451 kts 52°
2026-05-08 07:05 56.87834 -101.02657 38809 ft 453 kts 57°
2026-05-08 07:05 56.90927 -100.92614 38808 ft 453 kts 57°
2026-05-08 07:06 56.94037 -100.82599 38821 ft 453 kts 57°
2026-05-08 07:06 56.97144 -100.72568 38831 ft 452 kts 57°
2026-05-08 07:07 57.00242 -100.62522 38842 ft 452 kts 57°
2026-05-08 07:07 57.03329 -100.52471 38850 ft 452 kts 57°